Showing default

OPS 9341 (IDSCS 19), 3284

Orbit data source: Space-Track

OPS 9341 (IDSCS 19), 3284 is a payload satellite owned by SAMSO (US) in GEO that was launched on Thu, 13 Jun 1968 UTC via a TITAN IIIC launch vehicle from the Air Force Eastern Test Range (AFETR). Payload-class satellites include a variety of spacecraft equipped with specific instruments for various scientific and technological missions. These include communications satellites like Starlink; space stations such as the ISS; scientific satellites like the Hubble; Earth observation satellites from companies like Planet Labs, Umbra, and HawkEye 360; GPS; miniature CubeSats for education and research; and military/defense satellites.

Loading next visibility...
Identifier
3284, 1968-050A
Orbit
GEO
Last TLE update
1 day ago
Origin
Manufacturer
Philco-Ford
Mission
Non-operational Defense Communications
Bus & Motor
IDCSP, Unknown motor
Mass
45 kg wet, 45 kg dry
Launch date (UTC)
1968-06-13 (57 years ago)
Launch vehicle
TITAN IIIC
Launch site
Air Force Eastern Test Range (AFETR)
Object type
Payload
Rocket body
Debris
Shape & HBR
Poly, 0.9 m
Radar Cross Section
0.926 m², Medium (>0.1 m² and < 1m²)

Expand to show TLE details & history

TLE from 1 day ago
0 OPS 9341 (IDSCS 19)
1 03284U 68050A   25181.24117100 -.00000100  00000-0  00000-0 0  9991
2 03284   6.4928  54.8752 0013626 138.9469  30.1525  1.07854573 46418
Epoch: 2025-06-30T05:47Z
TLE epoch observation values (Epoch: 2025-06-30T05:47:17.174Z)
Latitude
1.21417°
Longitude
-141.23648°
Altitude
33,738.629 km
Speed
3.154 km/s
True Right ascension
14h 56m 33s
True Declination
1° 12' 46"
Sunlit
Object was in daylight at epoch
Visualization orbit readout
Latitude
-3.98685°
Longitude
-92.94785°
Altitude
33,775.707 km
Speed
3.151 km/s
Apparent Right ascension
18h 05m 30s
Apparent Declination
-11° 01' 31"
Sunlit
Object is in daylight
Visualization observer readout
Local Sidereal Time
18:40:00
Azimuth
190.831° SSW
Elevation
38.433°
Doppler factor
1
Orbital elements
Apogee altitude
33,842.233 km
Perigee altitude
33,732.774 km
Semi-major axis
40,165.64 km
Eccentricity
0.00136
Inclination
6.4928°
RAAN
54.8752°
Arg. of periapsis
138.9469°
True anomaly
Unknown
Mean anomaly
30.1525°
Eccentric anomaly
Unknown
Mean motion
0.26963 °/min
Orbital period
1,335.18 mins
BSTAR
0
Loading historical data...
3284 neighbors
Loading maneuver chart data...
Loading SW <> Apogee altitude chart data...
Loading historical data...
Loading historical data...
Loading historical data...
Loading historical data...
Loading historical data...
Loading historical data...
Loading historical data...

OPS 9341 (IDSCS 19) Visibility forecast

Observer location: undefined°, undefined°

Span
Click to sort rows by Start time (UTC) header in descending order
Start Az.
Max El. time (UTC)
Max El. Az.
Max El.
End time (UTC)
End Az.
1440 mins2025-07-01 07:02:06.918Z190.827° SSW2025-07-01 20:59:06.918Z165.503° S37.412°2025-07-02 07:02:06.918Z153.68° SSE
|